Starlink 4714

operational
NORAD ID: 53704 Int'l Des: 2022-107 Owner: SPXS Country: US Constellation: starlink
LEOCIRCULAR

Starlink 4714について

説明を読み込み中...

リアルタイム位置

3D地球を読み込み中...

次回通過

高度履歴

Altitude vs Time

uPlot chart will show altitude changes over time

軌道要素

1 53704U 22107E 25351.90593810 -.00001010 00000-0 -45378-4 0 9997
2 53704 53.2190 251.5193 0001574 91.0440 269.0732 15.08836432182349
Epoch: Dec 17, 2025 • Age: 15 hours

現在のステータス

高度 542.6 km
速度 7.60 km/s
衛星直下点 40.54°N, 16.59°E
打ち上げ日 Sep 5, 2022
運用期間 3.2 years
タイプ internet

技術仕様

分類 Payload
質量 305.00 kg
乾燥質量 290.00 kg
総質量 305.00 kg
長さ 0.20 m
直径 2.80 m
スパン 9.00 m
形状 Box + pan
製造者 SPXS
バスタイプ Starlink
フェーズステータス In Orbit
所有者/国 SPXS/US

大規模コンステレーション

Loading constellations...